DeKalb, IL

11:36 PM CDT on October 19, 2017 (GMT -0500)
De Kalb Taylor Municipal

Weather History for KDKB - November, 2012

Change the Weather History Date:

Tuesday, November 20, 2012

  Actual Average (KARR) Record (KARR)
Temperature  
Mean Temperature 48 °F -  
Max Temperature 57 °F 44 °F 65 °F (2003)
Min Temperature 38 °F 27 °F 4 °F (2014)
Degree Days  
Heating Degree Days 18    
Moisture  
Dew Point 44 °F    
Average Humidity 81    
Maximum Humidity 91    
Minimum Humidity 67    
Precipitation  
Precipitation 0.00 in - - ()
Sea Level Pressure  
Sea Level Pressure 30.12 in    
Wind  
Wind Speed 5 mph (WNW)    
Max Wind Speed 8 mph    
Max Gust Speed -    
Visibility 5 miles    
Events Fog    
Averages and records for this station are not official NWS values.
T = Trace of Precipitation, MM = Missing Value Source: NWS Daily Summary

Daily Weather History Graph

Daily Weather History Graph

Search for Another Location

Airport or City:

Trip Planner

Search our weather history database for the weather conditions in past years. The results will help you decide how hot, cold, wet, or windy it might be!

Date:

Astronomy

Nov. 20, 2012 Rise Set
Actual Time 6:51 AM CST 4:29 PM CST
Civil Twilight 6:20 AM CST 5:00 PM CST
Nautical Twilight 5:46 AM CST 5:34 PM CST
Astronomical Twilight 5:13 AM CST 6:07 PM CST
Moon 12:22 PM CST No Moon Set
Length of Visible Light 10h 39m
Length of Day
9h 38m
First Quarter, 51% of the Moon is Illuminated
Nov 20
First Quarter
Nov 28
Full
Dec 6
Last Quarter
Dec 13
New
Dec 19
First Quarter

Hourly Weather History & Observations

Time (CST) Temp. Windchill Dew Point Humidity Pressure Visibility Wind Dir Wind Speed Gust Speed Precip Events Conditions
12:15 AM 48.6 °F - 43.3 °F 82% 30.09 in 7.0 mi South 8.1 mph - N/A   Overcast
12:35 AM 48.4 °F - 43.5 °F 83% 30.08 in 7.0 mi South 6.9 mph - N/A   Overcast
12:55 AM 48.2 °F - 43.3 °F 83% 30.08 in 7.0 mi South 5.8 mph - N/A   Mostly Cloudy
1:15 AM 47.7 °F - 43.3 °F 85% 30.08 in 7.0 mi South 4.6 mph - N/A   Mostly Cloudy
1:35 AM 47.5 °F - 43.3 °F 86% 30.08 in 7.0 mi South 4.6 mph - N/A   Overcast
1:55 AM 47.5 °F - 43.3 °F 86% 30.08 in 7.0 mi South 4.6 mph - N/A   Overcast
2:15 AM 47.3 °F - 43.2 °F 86% 30.08 in 7.0 mi South 3.5 mph - N/A   Overcast
2:35 AM 47.5 °F - 43.7 °F 87% 30.08 in 7.0 mi SSW 4.6 mph - N/A   Overcast
6:15 AM 47.5 °F - 43.7 °F 87% 30.09 in 7.0 mi West 4.6 mph - N/A   Overcast
6:35 AM 47.5 °F - 43.3 °F 86% 30.09 in 7.0 mi WNW 4.6 mph - N/A   Overcast
6:55 AM 47.7 °F - 43.7 °F 86% 30.09 in 7.0 mi WNW 5.8 mph - N/A   Overcast
7:15 AM 48.2 °F - 43.7 °F 84% 30.09 in 5.0 mi West 5.8 mph - N/A   Overcast
7:35 AM 48.2 °F - 43.7 °F 84% 30.10 in 5.0 mi WNW 5.8 mph - N/A   Overcast
7:55 AM 48.6 °F - 44.1 °F 84% 30.11 in 5.0 mi WNW 5.8 mph - N/A   Haze
8:15 AM 49.1 °F - 44.2 °F 83% 30.11 in 5.0 mi WNW 3.5 mph - N/A   Haze
8:35 AM 50.0 °F - 44.2 °F 81% 30.11 in 5.0 mi Calm Calm - N/A   Haze
8:55 AM 50.4 °F - 44.6 °F 81% 30.11 in 5.0 mi NW 3.5 mph - N/A   Haze
9:15 AM 51.3 °F - 45.5 °F 81% 30.11 in 5.0 mi NNW 4.6 mph - N/A   Haze
9:35 AM 52.9 °F - 46.9 °F 80% 30.11 in 5.0 mi North 5.8 mph - N/A   Haze
9:55 AM 52.9 °F - 47.1 °F 81% 30.11 in 5.0 mi NNW 3.5 mph - N/A   Haze
10:15 AM 54.3 °F - 47.7 °F 78% 30.11 in 5.0 mi NNW 3.5 mph - N/A   Haze
10:35 AM 54.5 °F - 47.7 °F 78% 30.11 in 7.0 mi NNW 6.9 mph - N/A   Mostly Cloudy
10:55 AM 54.1 °F - 47.5 °F 78% 30.11 in 7.0 mi NW 4.6 mph - N/A   Overcast
11:15 AM 55.0 °F - 48.4 °F 78% 30.10 in 5.0 mi NNW 4.6 mph - N/A   Haze
11:35 AM 55.4 °F - 48.4 °F 77% 30.10 in 5.0 mi NW 4.6 mph - N/A   Haze
11:55 AM 55.6 °F - 48.2 °F 76% 30.09 in 5.0 mi Calm Calm - N/A   Haze
12:15 PM 56.1 °F - 48.4 °F 75% 30.10 in 5.0 mi NW 5.8 mph - N/A   Haze
12:35 PM 56.3 °F - 48.0 °F 74% 30.09 in 5.0 mi NW 5.8 mph - N/A   Haze
12:55 PM 56.5 °F - 47.8 °F 73% 30.09 in 5.0 mi WNW 4.6 mph - N/A   Haze
1:15 PM 56.7 °F - 47.7 °F 72% 30.09 in 7.0 mi NW 4.6 mph - N/A   Scattered Clouds
1:35 PM 57.2 °F - 46.9 °F 69% 30.09 in 7.0 mi NW 6.9 mph - N/A   Scattered Clouds
1:55 PM 56.7 °F - 47.3 °F 71% 30.09 in 7.0 mi WNW 6.9 mph - N/A   Scattered Clouds
2:15 PM 56.5 °F - 46.9 °F 70% 30.09 in 7.0 mi NW 4.6 mph - N/A   Scattered Clouds
2:35 PM 57.2 °F - 46.6 °F 68% 30.09 in 7.0 mi NW 6.9 mph - N/A   Scattered Clouds
2:55 PM 57.6 °F - 47.1 °F 68% 30.09 in 7.0 mi NNW 8.1 mph - N/A   Scattered Clouds
3:15 PM 57.2 °F - 46.4 °F 67% 30.09 in 7.0 mi NNW 5.8 mph - N/A   Scattered Clouds
3:35 PM 55.8 °F - 46.4 °F 71% 30.10 in 7.0 mi NW 4.6 mph - N/A   Scattered Clouds
3:55 PM 55.4 °F - 45.9 °F 70% 30.11 in 7.0 mi NNW 4.6 mph - N/A   Clear
4:15 PM 54.1 °F - 45.5 °F 73% 30.12 in 7.0 mi Calm Calm - N/A   Clear
4:35 PM 53.2 °F - 45.1 °F 74% 30.12 in 7.0 mi Calm Calm - N/A   Clear
4:55 PM 53.2 °F - 45.7 °F 76% 30.12 in 7.0 mi Calm Calm - N/A   Clear
5:15 PM 52.2 °F - 45.3 °F 78% 30.13 in 7.0 mi Calm Calm - N/A   Clear
5:35 PM 52.2 °F - 45.5 °F 78% 30.14 in 7.0 mi Calm Calm - N/A   Clear
5:55 PM 52.2 °F - 46.0 °F 80% 30.15 in 7.0 mi Calm Calm - N/A   Clear
6:15 PM 49.3 °F - 44.4 °F 83% 30.16 in 7.0 mi WNW 3.5 mph - N/A   Clear
6:35 PM 50.4 °F - 45.1 °F 82% 30.15 in 7.0 mi Calm Calm - N/A   Clear
6:55 PM 45.7 °F 43.4 °F 41.9 °F 87% 30.16 in 5.0 mi WNW 4.6 mph - N/A   Clear
7:15 PM 48.4 °F - 44.6 °F 87% 30.14 in 5.0 mi WNW 3.5 mph - N/A   Clear
7:35 PM 47.1 °F - 43.2 °F 86% 30.15 in 5.0 mi WNW 4.6 mph - N/A   Clear
7:55 PM 46.0 °F 42.5 °F 43.0 °F 89% 30.16 in 5.0 mi NW 6.9 mph - N/A   Clear
8:15 PM 45.1 °F 41.4 °F 41.7 °F 88% 30.16 in 5.0 mi WNW 6.9 mph - N/A   Clear
8:35 PM 45.1 °F 41.4 °F 41.9 °F 88% 30.16 in 5.0 mi WNW 6.9 mph - N/A   Clear
8:55 PM 44.1 °F 40.8 °F 41.2 °F 90% 30.16 in 4.0 mi WNW 5.8 mph - N/A   Clear
9:15 PM 44.1 °F 40.8 °F 41.2 °F 90% 30.17 in 3.0 mi WNW 5.8 mph - N/A   Clear
9:35 PM 42.6 °F 39.0 °F 39.9 °F 90% 30.17 in 2.5 mi WNW 5.8 mph - N/A   Clear
9:55 PM 41.7 °F - 39.2 °F 91% 30.17 in 1.2 mi Calm Calm - N/A   Mist
10:15 PM 41.9 °F - 39.4 °F 91% 30.17 in 1.0 mi Calm Calm - N/A   Mist
10:35 PM 41.4 °F - 38.7 °F 90% 30.17 in 0.2 mi Calm Calm - N/A Fog Fog
10:55 PM 40.1 °F - 37.6 °F 91% 30.18 in 0.2 mi Calm Calm - N/A Fog Fog
11:15 PM 38.7 °F - 36.1 °F 91% 30.17 in 0.2 mi Calm Calm - N/A Fog Fog
11:35 PM 39.2 °F - 36.7 °F 91% 30.18 in 0.2 mi Calm Calm - N/A Fog Fog
11:55 PM 38.3 °F - 35.6 °F 90% 30.18 in 0.2 mi Calm Calm - N/A Fog Fog